Theta_e
328 331 333 332 327 328 333 333 330 332 333 335 336 338 338 339 338 338 337 336 335 323 323 321 315 317 332 329 319 325 324 324 322 323 319 315 321 327 331 332 331 330 327 321 321 316 313 313 311
333 333 332 330 329 333 331 329 333 330 334 337 337 338 338 337 336 335 337 336 328 324 323 325 316 315 324 325 324 319 317 314 314 312 311 310 311 319 329 330 328 326 323 317 316 313 311 313 311
333 331 329 326 332 335 332 329 328 330 333 335 338 339 338 336 336 334 335 335 324 327 327 329 325 317 320 329 327 322 316 315 314 312 310 309 310 313 317 321 319 318 317 314 313 311 310 310 310
328 329 328 328 332 330 328 328 328 330 332 335 337 335 337 336 336 335 335 333 324 329 331 330 328 319 316 328 324 316 313 312 311 310 310 309 310 310 311 310 310 311 314 312 311 310 311 311 312
326 327 324 328 329 328 328 329 329 328 330 335 336 336 338 337 336 335 336 328 325 327 331 329 331 326 317 317 315 314 312 312 312 313 312 310 310 309 309 309 309 309 309 309 309 310 311 312 311
325 326 326 325 326 328 329 330 329 328 334 336 338 338 338 337 337 335 335 333 328 327 326 326 328 328 330 328 320 315 314 314 314 315 315 314 313 312 311 310 310 310 310 311 310 310 311 311 311
324 324 328 326 326 328 329 329 326 326 330 336 337 335 338 337 338 336 336 334 331 329 327 326 325 326 329 327 327 321 319 316 316 318 318 318 318 316 314 313 312 312 312 312 312 313 313 315 315
323 324 329 326 326 329 327 326 327 329 326 337 336 336 337 337 336 336 336 335 333 330 328 326 324 325 325 325 326 323 322 322 322 323 323 322 322 322 323 322 319 318 315 316 318 321 322 322 322
325 323 328 329 326 326 328 325 329 328 335 333 335 336 336 337 336 336 335 335 334 334 328 326 323 323 322 322 324 325 325 325 325 325 325 325 325 324 324 323 324 324 323 322 322 323 323 323 323
321 322 327 325 325 326 326 329 330 329 331 336 335 336 337 336 337 335 335 335 335 334 330 326 322 322 324 325 326 326 326 326 326 325 326 325 322 322 324 325 325 326 325 323 323 323 323 324 324
320 321 324 325 326 325 326 329 329 328 328 335 336 337 337 337 337 336 335 335 334 334 330 326 325 327 327 326 326 325 324 322 319 316 315 315 314 313 313 315 317 323 326 323 324 325 324 325 325
319 321 321 325 326 325 326 330 328 328 329 330 333 334 337 337 337 336 335 335 334 333 329 329 328 327 324 323 321 321 319 316 315 315 315 315 314 315 314 315 315 313 319 325 325 324 325 325 322
319 318 320 323 325 325 327 329 328 329 329 330 336 337 338 336 337 336 335 335 335 334 332 330 327 327 328 322 321 319 317 316 316 316 316 315 314 314 313 312 314 315 316 316 318 318 322 323 322
319 319 320 324 325 326 327 328 329 330 329 334 336 338 338 337 336 336 336 335 334 334 334 333 328 327 327 323 320 318 318 317 317 317 317 317 316 315 313 313 314 314 316 319 322 321 323 323 323
320 320 320 324 324 325 326 329 328 330 328 336 338 338 338 337 337 336 336 335 335 335 335 334 331 329 328 325 323 320 318 319 319 319 320 319 317 316 314 313 313 313 316 319 323 322 322 321 322
320 319 326 318 316 323 325 330 327 330 332 337 337 338 338 337 336 336 335 335 336 335 334 333 332 329 324 323 323 321 320 320 321 322 322 321 319 318 316 314 314 314 315 318 319 322 321 324 325
322 323 323 319 315 313 325 328 326 330 332 334 336 337 337 336 335 335 335 335 334 334 333 330 332 332 329 326 325 325 325 324 324 324 325 324 323 321 320 317 315 315 314 314 317 320 323 324 326
326 323 321 319 316 315 323 324 321 326 331 333 336 337 336 336 335 335 335 335 334 333 333 332 332 332 331 332 331 330 330 330 330 329 328 329 327 326 324 321 318 315 314 313 314 315 319 324 325
322 322 322 319 317 316 316 317 315 317 323 329 330 335 336 335 334 335 335 334 334 333 333 333 333 333 333 333 333 333 332 330 329 329 329 331 331 331 329 326 324 318 314 313 312 313 316 321 325
323 323 324 320 318 319 319 321 318 317 318 323 326 330 333 334 334 334 334 333 333 333 332 332 333 334 334 334 334 334 333 333 333 332 332 332 333 332 332 331 327 322 315 313 312 312 313 316 324
323 323 323 323 320 318 321 324 320 319 315 317 323 325 330 331 331 331 332 332 333 332 332 332 333 334 334 334 334 334 334 333 332 331 329 328 329 328 328 327 324 322 317 314 313 312 313 317 321
324 320 322 320 323 326 320 329 323 318 318 316 320 318 316 316 317 318 322 327 331 331 331 332 332 332 332 332 332 330 329 329 325 322 321 321 323 324 323 322 321 320 318 315 314 312 313 319 320
321 317 318 320 319 318 319 322 322 316 321 318 312 311 312 314 312 312 312 313 316 319 323 325 324 324 324 323 320 318 316 315 313 313 314 315 318 319 320 320 320 319 317 316 313 312 314 319 319
316 316 315 315 318 322 317 324 319 323 322 317 318 308 309 310 310 310 310 310 309 309 309 310 310 310 310 310 310 311 311 311 311 311 311 311 312 312 314 317 318 318 318 316 313 314 316 319 321
317 317 318 319 320 320 312 318 317 313 313 320 317 314 316 312 312 311 311 310 310 310 310 310 310 311 311 311 311 311 311 311 310 310 310 309 310 311 312 315 316 316 316 314 313 314 316 318 321
318 315 318 317 317 315 311 319 316 309 307 309 311 309 311 311 310 310 310 310 309 309 309 309 309 309 309 309 309 309 310 311 311 310 310 310 310 311 312 313 314 314 314 313 313 315 316 317 319
316 317 311 308 304 312 310 309 307 307 306 307 309 310 310 310 310 310 310 310 310 309 310 309 309 309 309 309 309 309 309 308 309 310 311 311 311 311 311 312 312 312 312 312 313 314 315 318 319
313 310 314 308 306 307 306 307 306 306 307 307 307 309 310 310 309 309 309 309 309 309 308 308 308 308 308 308 308 308 308 308 308 308 308 309 310 310 310 310 310 311 311 312 312 313 314 316 317
310 308 307 308 306 307 305 303 305 306 307 307 307 309 309 308 308 308 307 307 306 306 306 305 305 305 305 305 306 306 306 307 307 307 307 307 307 307 307 308 309 309 309 310 311 312 313 314 317
310 308 307 309 306 305 307 307 306 306 306 307 307 306 308 307 307 306 306 305 305 305 304 304 304 304 304 304 304 304 304 305 306 306 307 307 307 307 307 307 307 307 308 308 308 310 312 313 314
Wind_Speed
5 9 7 2 3 4 3 2 1 3 4 3 13 14 9 7 2 3 17 15 16 17 17 14 14 16 15 15 14 12 10 9 8 7 6 6 7 7 7 7 6 4 5 6 4 7 8 9 10
4 3 2 1 4 2 4 3 4 1 16 21 15 10 8 3 5 16 24 13 17 18 18 14 14 15 15 13 11 10 8 8 7 6 6 6 8 8 6 4 1 1 3 4 4 7 8 8 9
2 1 2 3 1 2 2 4 6 6 9 6 6 12 5 5 9 26 18 19 18 18 17 14 13 14 15 13 9 9 7 7 7 6 6 7 9 8 8 6 4 4 2 3 4 5 8 10 10
1 1 1 3 3 4 6 8 8 9 8 7 16 9 8 7 18 16 19 18 19 18 17 14 13 12 15 14 9 6 6 7 7 7 6 7 8 7 6 4 1 2 2 1 3 5 6 8 8
2 1 2 1 4 3 2 10 6 6 6 12 6 3 6 14 10 18 18 18 18 19 17 15 13 13 12 10 9 8 8 8 8 8 8 7 5 4 3 4 4 5 5 4 4 4 5 5 5
2 1 2 2 4 2 1 11 12 6 10 11 13 9 7 12 13 18 17 15 16 16 15 14 13 12 11 9 9 10 9 8 8 7 7 6 5 4 3 3 3 4 4 4 5 5 5 5 5
3 2 3 4 3 4 5 13 11 10 11 5 22 5 11 20 18 18 17 13 14 12 13 12 12 12 11 8 8 9 8 8 8 8 7 6 5 4 4 3 3 4 4 4 4 5 4 4 4
6 2 2 2 4 3 5 8 13 20 3 22 14 7 8 26 27 22 16 12 11 11 12 11 11 12 11 9 7 6 7 8 7 6 4 3 2 2 1 2 3 3 3 3 3 3 3 3 2
7 2 3 2 3 4 13 5 7 9 20 7 7 12 12 32 29 24 20 15 14 11 13 12 12 11 11 9 7 5 4 4 3 2 2 1 1 2 1 1 1 3 3 3 4 4 4 4 4
3 2 5 1 2 4 3 9 11 7 13 6 10 9 29 36 31 27 23 19 16 13 15 14 13 12 11 10 8 6 5 4 3 3 3 2 1 1 2 4 4 4 6 6 6 6 6 5 5
3 4 1 3 6 5 6 11 4 18 2 12 23 29 38 36 32 27 22 19 17 11 13 13 14 14 13 11 10 7 6 4 3 1 1 1 3 5 5 6 6 6 8 6 7 8 8 7 7
4 4 5 5 8 6 5 11 9 8 7 16 19 25 35 37 35 29 26 20 19 13 13 13 13 14 14 12 9 6 6 5 4 2 1 3 5 6 7 8 9 9 7 9 9 10 10 10 9
2 4 7 8 12 8 4 5 7 8 7 18 26 32 32 33 33 28 23 20 19 16 15 12 12 12 12 9 8 7 7 5 3 2 2 3 4 7 8 8 8 9 11 11 10 10 10 11 11
5 4 9 4 9 6 6 3 7 7 16 27 30 33 31 30 32 27 26 22 22 16 15 14 15 13 14 12 10 9 9 7 7 6 5 6 6 7 9 9 10 11 11 12 12 13 14 15 16
3 2 6 1 4 4 0 1 5 12 27 33 33 31 29 29 29 29 27 24 21 17 16 16 14 14 15 13 12 12 11 11 10 9 8 9 9 9 10 11 12 13 14 15 15 15 16 18 18
4 1 4 3 13 4 1 7 3 18 32 31 31 31 29 29 29 27 25 23 21 18 20 17 16 15 15 15 15 14 14 14 13 13 13 13 13 13 14 14 14 13 15 17 18 18 16 17 18
2 7 4 3 6 5 3 4 4 18 28 29 30 31 28 27 26 25 22 20 19 19 17 20 18 17 16 16 16 16 16 17 18 17 18 18 18 18 19 19 18 17 18 19 20 19 21 23 23
9 8 2 4 3 5 1 2 4 9 22 26 29 30 28 28 27 22 21 20 17 17 18 18 17 18 17 15 15 17 20 21 21 22 23 23 23 23 24 24 23 22 23 22 23 23 23 25 26
14 9 5 1 4 2 4 1 4 7 6 16 21 27 27 26 21 21 21 20 19 19 18 18 19 17 16 18 19 20 23 24 26 26 26 27 28 29 29 30 29 28 28 26 25 25 26 27 26
15 15 8 2 2 1 5 3 4 4 4 12 15 22 28 26 24 22 22 22 21 18 17 19 21 21 20 20 21 22 24 26 28 27 29 31 33 34 34 35 34 33 32 30 28 27 28 29 26
4 15 11 6 3 2 5 5 3 1 4 4 9 8 16 19 16 17 20 22 22 21 22 23 22 20 20 19 22 25 26 30 33 32 32 33 34 35 36 35 34 33 33 33 31 29 29 30 26
5 2 11 7 8 4 3 3 3 2 4 4 5 4 9 9 11 10 7 11 17 19 18 17 17 17 18 21 23 25 27 31 32 32 32 32 32 32 32 31 32 33 34 35 33 30 30 29 29
3 7 7 5 5 4 0 1 5 3 5 5 16 8 14 10 7 10 8 6 5 6 7 10 13 15 17 20 22 25 27 30 30 30 31 32 34 35 35 35 34 33 32 33 33 32 31 30 29
15 11 11 6 2 3 6 6 3 5 6 2 1 4 11 13 12 11 10 8 5 4 2 1 3 6 8 11 13 17 20 22 24 25 28 31 33 32 31 31 31 31 32 34 33 31 30 31 37
12 8 3 2 2 3 4 6 5 4 10 14 16 5 9 4 9 19 20 21 20 18 16 12 10 8 7 8 9 10 13 16 19 21 24 27 28 28 27 28 31 34 34 33 33 33 32 33 37
15 4 5 6 5 3 4 5 2 2 8 22 26 26 23 19 22 23 20 19 17 16 14 12 10 10 11 12 12 13 15 17 19 20 21 23 25 26 26 28 30 32 32 33 33 34 33 33 34
5 4 4 6 2 3 4 3 2 4 7 17 20 21 22 27 22 20 17 13 11 10 10 10 11 11 10 10 11 13 15 16 18 20 21 22 23 25 26 27 29 30 31 32 33 34 35 34 34
4 6 3 2 3 2 2 1 4 4 7 10 15 20 23 23 18 15 14 11 11 12 12 13 13 13 14 15 17 19 21 22 23 23 24 25 25 26 27 29 30 31 32 33 34 36 36 36 38
3 2 4 4 4 4 4 4 4 7 7 12 18 23 20 16 17 15 13 12 13 14 15 15 14 14 13 15 17 17 16 18 20 22 24 26 27 28 29 30 32 33 34 34 35 37 38 39 41
3 5 4 4 3 0 2 2 4 8 11 20 21 20 21 18 16 14 13 12 13 13 12 13 15 16 18 18 18 19 20 20 21 22 24 26 29 30 33 34 35 36 36 35 37 39 39 41 43
Wind_Direction
98 127 138 142 54 57 295 306 74 129 63 69 85 98 104 70 79 171 138 153 166 159 154 147 145 145 141 143 151 155 145 145 144 146 142 140 141 129 120 112 96 68 42 27 43 38 55 71 77
129 131 142 97 91 50 279 284 134 108 131 105 78 81 51 76 110 141 148 161 162 154 151 142 142 148 152 147 151 158 159 150 146 137 137 144 160 163 160 151 137 22 360 7 38 51 51 81 88
145 195 7 92 148 211 215 164 152 130 145 118 102 78 79 111 141 147 151 154 160 156 152 143 138 148 151 144 150 148 148 147 141 140 138 140 150 164 181 204 245 256 291 21 39 57 66 76 85
123 205 54 97 237 266 185 188 155 130 99 88 115 71 88 136 150 160 149 156 158 158 156 148 141 142 154 155 163 156 147 140 129 121 126 131 142 148 159 165 124 96 156 57 40 65 73 68 76
326 80 55 285 270 293 108 174 164 117 102 122 116 108 95 142 163 155 154 159 161 158 159 158 152 141 146 152 148 144 138 131 122 112 110 118 131 135 135 131 93 87 94 82 65 58 64 58 62
349 55 78 222 270 49 54 175 145 113 120 126 107 99 134 170 168 165 162 157 164 156 158 162 159 151 151 151 142 140 139 133 125 115 105 99 99 100 94 84 61 50 52 57 64 66 65 65 65
1 76 221 151 253 154 212 165 145 138 142 140 140 94 141 167 178 175 168 164 163 161 164 165 164 162 161 151 154 155 150 147 132 121 104 95 83 73 63 54 45 35 31 36 44 52 52 53 54
308 87 276 181 214 240 185 164 156 152 143 144 140 155 173 172 170 167 170 171 173 171 176 172 169 169 168 161 153 134 127 118 124 121 116 107 104 92 57 39 34 29 22 7 6 12 8 1 350
278 33 246 215 188 245 176 133 160 136 138 147 185 171 172 163 167 171 172 177 177 179 185 179 173 170 169 168 168 165 159 150 152 154 161 169 226 243 312 229 286 317 309 306 309 313 307 306 308
208 175 228 241 278 274 198 143 147 135 134 102 149 159 154 159 172 175 179 181 185 189 190 185 179 173 173 175 173 178 188 199 210 230 231 214 216 284 268 280 277 277 283 279 280 281 283 297 297
266 220 227 274 310 302 167 145 137 138 259 169 153 152 159 164 175 181 186 189 189 198 194 184 185 184 187 184 183 185 196 212 221 228 174 324 332 343 320 307 291 280 288 279 271 274 280 277 285
275 277 17 312 309 319 169 156 139 158 214 189 181 167 164 172 179 184 188 190 188 194 190 192 195 197 192 183 176 179 186 181 176 152 31 346 337 335 336 339 331 324 295 272 282 275 266 272 270
245 310 329 318 300 299 202 199 162 209 193 172 167 167 171 176 181 187 194 193 198 203 199 199 200 201 202 194 196 199 201 200 213 242 273 304 317 315 313 319 318 312 323 331 323 307 289 286 293
185 268 298 331 296 305 178 188 162 190 176 168 170 174 178 181 182 186 198 202 205 207 207 209 208 206 211 211 207 217 222 223 231 242 256 272 289 297 302 303 306 308 309 312 309 294 267 268 274
95 10 322 288 334 296 164 114 207 167 169 169 176 180 183 186 186 194 198 204 208 210 214 214 214 215 222 226 227 231 237 240 245 255 261 272 279 282 288 293 298 301 298 297 292 289 275 269 269
126 40 181 9 19 290 254 215 216 169 168 173 181 186 187 189 194 199 203 207 214 218 222 220 221 224 228 234 237 240 244 253 258 259 263 270 274 275 276 280 287 292 287 285 282 282 275 276 277
306 199 194 168 58 292 213 217 180 180 179 178 187 188 191 192 200 203 201 203 211 217 224 225 228 236 240 240 244 250 253 259 262 264 267 271 273 273 273 277 282 282 284 284 282 273 271 275 279
159 171 111 177 5 335 232 27 35 186 190 187 189 191 195 197 202 202 207 210 216 224 231 239 238 244 248 252 256 258 259 261 263 266 270 273 273 274 275 278 279 278 280 284 281 277 269 267 273
154 162 140 57 349 299 340 236 308 342 222 199 199 199 200 204 206 208 211 217 222 227 233 244 248 251 253 259 263 267 271 275 273 273 275 276 278 279 277 278 277 275 275 282 281 275 270 266 270
178 156 168 99 312 166 359 301 290 309 238 215 205 206 206 207 209 208 211 216 221 232 239 244 249 251 254 259 272 274 277 279 278 277 276 275 276 278 278 277 276 274 273 275 279 275 269 264 261
198 183 170 168 132 41 341 328 359 302 240 230 214 191 208 215 213 207 208 210 214 220 228 233 235 239 247 255 259 263 267 273 279 283 286 282 279 279 278 278 276 275 274 275 278 277 269 264 261
176 179 182 142 162 196 337 230 303 308 330 348 217 135 121 128 135 145 174 211 224 228 230 233 241 246 252 259 266 271 275 277 282 286 284 281 278 279 279 277 278 281 279 277 277 276 271 262 257
143 110 112 128 106 127 251 55 277 35 311 39 359 96 101 109 118 127 124 139 157 181 206 228 242 253 259 265 271 276 281 283 288 289 288 289 287 285 284 282 283 282 281 279 276 275 272 263 260
121 93 59 44 63 212 185 171 253 195 222 74 16 18 95 118 110 98 85 87 103 100 100 279 282 276 280 285 290 291 292 294 293 294 291 290 287 286 285 286 286 285 288 284 277 275 272 267 265
132 136 107 123 193 216 157 148 254 197 180 215 186 185 286 69 102 100 98 84 77 74 69 63 55 41 15 356 348 334 323 314 311 307 302 299 297 296 294 290 287 287 287 282 277 274 271 265 264
163 179 155 165 178 160 135 195 194 100 111 134 151 151 141 123 105 92 82 75 69 63 58 51 41 31 20 11 3 354 344 337 329 323 315 308 305 303 298 292 290 290 289 284 279 276 274 270 264
191 202 154 112 28 97 186 210 30 116 76 111 121 120 119 116 101 79 78 75 67 62 49 36 26 15 358 348 345 345 343 337 331 326 322 317 313 308 302 299 297 296 294 290 284 279 275 270 266
191 168 94 16 124 129 243 229 145 147 131 116 123 128 130 118 92 86 80 71 56 45 30 12 4 357 349 344 340 339 339 335 332 330 327 323 318 312 308 305 302 298 296 293 290 285 280 271 266
163 147 60 105 121 152 138 257 178 176 161 133 133 134 127 107 100 90 77 60 47 34 26 24 22 18 9 1 354 343 333 326 324 322 320 319 318 316 312 309 305 302 299 296 292 289 283 276 270
244 163 146 127 220 130 105 306 32 134 159 140 130 110 118 111 99 86 73 57 40 32 25 18 14 7 3 355 349 343 340 334 327 321 315 312 310 310 310 310 307 303 299 296 294 291 286 280 275